STARLINK-34074

Satellite information

Favourite Embed

Satellite Type and Status

PAYLOADIN ORBIT

Key statistics

Satellite STARLINK-34074 at a glance.

Uptime

204

Days in orbit

Revolutions

≈ 15.3

Per day

Orbit

LEO

Low Earth Orbit

Inclination

53.2

Latest

Satellite identification and parameters

Extended collection of information and parameters for STARLINK-34074.

Object identification

Identified? True

Debris? False

Object name: STARLINK-34074

International designator: 2025-110D

Object number (NORAD): 64099

Object ID (CCSDS): 64099

Country: UNITED STATES OF AMERICA (US)

Current information (Y/N): Y

RCS size: LARGE

Orbital parameters

Period: 94.105 minutes

Inclination: 53.157 deg

SMA: 6853.326 km

Apoapsis: 475.782 km

Periapsis: 474.6 km

RAAN: 73.1167 deg

Eccentricy: 0.0000862

Argument of periapsis: 28.312 deg

Mean anomaly: 331.7928 deg

Mean motion: 15.30208722 rev/day

Mean motion (dot): 0.00042035 rev/day2

B* drag term: 0.0014229573 1/REarth

Two-line elements (TLE)

Creation date: Dec. 12, 2025, 10:14 a.m.

Reference frame: TEME

Reference center: EARTH

Epoch: Dec. 12, 2025, 6:23 a.m. UTC

TLE line 0: 0 STARLINK-34074

TLE line 1: 1 64099U 25110D 25346.26633204 .00042035 00000-0 14230-2 0 9999

TLE line 2: 2 64099 53.1570 73.1167 0000862 28.3120 331.7928 15.30208722 32499

Live tracking on map

Real-time ground track for satellite STARLINK-34074.

In-orbit conjunctions

There are no conjunctions computed for STARLINK-34074, at the moment. Check back to stay up to date, as we update our databases every day.

Go to all conjunctions

Associated space launch

A batch of 27 satellites for the Starlink mega-constellation - SpaceX's project for space-based Internet communication system.

STARLINK-34074 was lifted into orbit during the mission ‘Falcon 9 Block 5 | Starlink Group 11-16’, on board a Falcon 9 space rocket.

The launch took place on May 23, 2025, 10:32 p.m. from Space Launch Complex 4E.

For more information about the launch, click the button.

Launch to space Falcon 9 Block 5 | Starlink Group 11-16
Falcon 9 Block 5 | Starlink Group 11-16

Agency: SpaceX

Status: Launch Successful

Launch date: May 23, 2025, 10:32 p.m. UTC

Rocket: Falcon 9

Launch pad: Space Launch Complex 4E

Location: Vandenberg SFB, CA, USA

...

Latest news about this satellite

News about space launch
Launch Roundup: SpaceX to start new Starlink shell; China, Russia to launch unknown payloads

This week, SpaceX will begin building a new shell for its Starlink constellation, launching from… The post Launch Roundup: SpaceX to start new Starlink shell; China, Russia to launch unknown payloads appeared first on NASASpaceFlight.com.


Newsletter sign-up

Weekly statistics, charts and insights to help you stay on top of the space industry.